STARLINK-11554, 62833

Orbit data source: Space-Track

STARLINK-11554, 62833 is a payload satellite owned by SpaceX/Seattle (US) in LEO that was launched on Mon, 27 Jan 2025 UTC via an FALCON 9 launch vehicle from the Air Force Eastern Test Range (AFETR). Payload-class satellites include a variety of spacecraft equipped with specific instruments for various scientific and technological missions. These include communications satellites like Starlink; space stations such as the ISS; scientific satellites like the Hubble; Earth observation satellites from companies like Planet Labs, Umbra, and HawkEye 360; GPS; miniature CubeSats for education and research; and military/defense satellites.

Loading next visibility...
Identifier
62833, 2025-019E
Orbit
LEO
Country
Flag of USUS
Related business
Manufacturer
SpaceX/Seattle
Mission
Operational Commercial Communications
Bus & Motor
STARLINK V2MD, Unknown motor
Mass
960 kg wet, ~910 kg dry
Launch date (UTC)
2025-01-27 (1 year ago)
Launch vehicle
FALCON 9
Launch site
Air Force Eastern Test Range (AFETR)
Object type
Payload
Rocket body
Debris
Shape & HBR
Box + 2 Pan, 18.1 m
Radar Cross Section
36.964 m², Large (>1 m²)

Expand to show TLE details & history
Last TLE update: 8 hours ago

TLE from 8 hours ago
0 STARLINK-11554
1 62833U 25019E   26072.92639417  .00223841  00000-0  16989-2 0  9992
2 62833  42.9993 280.7512 0001788 287.4361  72.6311 15.70874021 64544
Epoch: 2026-03-13T22:14Z
TLE epoch observation values (Epoch: 2026-03-13T22:14:00.456Z)
Latitude
-0.00002°
Longitude
135.69436°
Altitude
355.81 km
Speed
7.698 km/s
True Right ascension
18h 43m 00s
True Declination
0° 00' 00"
Sunlit
Object was in daylight at epoch
Visualization orbit readout
Latitude
Unknown
Longitude
Unknown
Altitude
Unknown
Speed
Unknown
Apparent Right ascension
Unknown
Apparent Declination
Unknown
Sunlit
N/A
Visualization observer readout
Local Sidereal Time
10:36:49
Azimuth
Unknown
Elevation
Unknown
Doppler factor
Unknown
Orbital elements
Apogee altitude
359.584 km
Perigee altitude
357.175 km
Semi-major axis
6,736.517 km
Eccentricity
0.00018
Inclination
42.9993°
RAAN
280.7512°
Arg. of periapsis
287.4361°
True anomaly
72.65066°
Mean anomaly
72.6311°
Eccentric anomaly
72.64088°
Mean motion
3.92546 °/min
Orbital period
91.71 mins
BSTAR
0.0016989
Loading maneuver chart data...
Computing Atmospheric mass density...
Loading historical data...
Loading historical data...
Loading historical data...
Loading historical data...
Loading historical data...
Loading historical data...
Loading historical data...

Documentation

Showing up to 5 results
|